Regional Weather Roundup
Issued by NWS

Home | Current Version | Previous Version | Text Only | Print | Product List | Glossary Off
Versions: 1 2 3 4 5 6 7 8 9 10 11 12 13 14 15 16 17 18 19 20 21 22 23 24 25 26 27

000
ASUS45 KBOU 200907
RWRCO

WEATHER ROUNDUP FOR COLORADO
NATIONAL WEATHER SERVICE DENVER/BOULDER CO
300 AM MDT WED SEP 20 2017

NOTE: "FAIR" INDICATES FEW OR NO CLOUDS BELOW 12000 FEET WITH NO
SIGNIFICANT WEATHER AND/OR OBSTRUCTIONS TO VISIBILITY.

COZ001>005-013-030-031-201000-
...NORTHWEST COLORADO...

CITY           SKY/WX    TMP DP  RH WIND       PRES   REMARKS
CRAIG          MOCLDY    40  35  83 NE5       30.04S
HAYDEN         CLOUDY    37  35  92 E8        30.07S
MEEKER         FAIR      41  38  89 CALM      30.02F
RABBIT EARS PA FOG       28  28 100 W12G21    30.11R VSB 1/2 WCI  18
STEAMBOAT SPGS CLOUDY    34  34  98 SE3       30.05F
WALDEN         CLOUDY    34  32  93 CALM      30.07R
$$

COZ006>008-011-201000-
...WEST CENTRAL VALLEYS...

CITY           SKY/WX    TMP DP  RH WIND       PRES   REMARKS
GRAND JUNCTION FAIR      53  35  50 NE6       29.90R
MONTROSE       FAIR      59  29  31 N7        29.96S
EAGLE          FAIR      46  32  58 NW3       30.01R
RIFLE          MOCLDY    52  37  56 CALM      29.96S
DELTA          FAIR      56  34  43 CALM      29.92R
NUCLA          FAIR      57  27  30 S5        30.00S
$$

COZ017>023-064>068-201000-
...SOUTHWEST COLORADO...

CITY           SKY/WX    TMP DP  RH WIND       PRES   REMARKS
DURANGO        FAIR      43  29  57 N7        30.06S
CORTEZ         FAIR      54  24  31 CALM      30.01R
PAGOSA SPRINGS FAIR      42  25  50 CALM      30.11S
TELLURIDE      FAIR      52  23  32 SW5       30.19S
WOLF CREEK PAS FAIR      36  14  41 SW24G36   30.31S
$$

COZ009-010-012-014-032>034-037-058>063-201000-
...CENTRAL COLORADO...

CITY           SKY/WX    TMP DP  RH WIND       PRES   REMARKS
ASPEN          CLOUDY    53  32  44 NW6       30.00R
BUENA VISTA    FAIR      58  21  24 SW3       30.01R
COPPER MTN     FAIR      45  23  42 W9G25     30.22R
BERTHOUD PASS  FAIR      34  28  80 W41G52    30.16R WCI  18
COTTONWOOD PAS FAIR      55  19  24 SW21G49   30.08R
GUNNISON       FAIR      42  25  50 NE5       30.05R
KREMMLING      MOCLDY    43  34  70 CALM      30.04F
LEADVILLE      FAIR      47  22  37 S7        30.09R
MONARCH PASS   FAIR      37  21  52 W38G45    30.34S
SALIDA         FAIR      61  19  20 S15G22    30.07S
SUNLIGHT       FAIR      39  28  65 SW16G30   30.17S
WILKERSON PASS FAIR      43  19  39 SW13G20   30.19S
$$

COZ069>075-201000-
...SAN LUIS VALLEY/SANGRE DE CRISTO MOUNTAINS...

CITY           SKY/WX    TMP DP  RH WIND       PRES   REMARKS
ALAMOSA        FAIR      50  22  33 S15       30.06R
DEL NORTE      FAIR      47  20  34 W6        30.08R
LA VETA PASS   FAIR      46  18  31 SW28G45   30.27R
SAGUACHE       FAIR      36  27  69 CALM      30.07S
$$

COZ035-036-038>040-201000-
...NORTHERN COLORADO FRONT RANGE...

CITY           SKY/WX    TMP DP  RH WIND       PRES   REMARKS
DENVER INTL AP FAIR      42  29  59 S12       29.90R
DMNS CITY PARK   N/A     47  31  53 SE12      29.92R
AURORA         PTCLDY    43  31  62 SE12      29.93R
FRONT RANGE AP FAIR      45  32  61 SE13      29.93R
ERIE MUNI ARPT FAIR      45  31  57 S5        29.97R
BOULDER MUN AP FAIR      45  32  61 CALM      29.91R
CENTENNIAL     FAIR      45  31  58 SE9       29.93R
BROOMFIELD     FAIR      46  32  57 SE7       29.92S
FORT COLLINS   FAIR      47  32  56 SE3       29.91R
LONGMONT       FAIR      45  34  64 CALM      29.93R
$$

COZ041-046-047-076>085-087-088-201000-
...PIKES PEAK/PALMER DIVIDE AND SOUTHERN FOOTHILLS...

CITY           SKY/WX    TMP DP  RH WIND       PRES   REMARKS
COLO. SPRINGS  FAIR      45  31  58 S12       29.99R
A. F. ACADEMY  FAIR      45  31  58 S12       29.97R
SCHRIEVER AFB  FAIR      39  29  66 MISG      29.99R
CHEYENNE MTN   NOT AVBL
ELLICOTT         N/A    N/A N/A N/A NW3       29.97R
FALCON         FAIR      40  28  63 W3        30.01R
FORT CARSON    FAIR      45  32  60 S8        29.95R
LIMON          FAIR      44  32  62 NE15      29.93R
MONUMENT HILL  FAIR      36  28  75 SE7       29.99R
CANON CITY     CLEAR     52  34  50 N8        29.97R
WALSENBURG     FAIR      45  32  61 CALM      30.00R
TRINIDAD       FAIR      47  34  60 NW3       30.00R
$$

COZ042>045-048>051-090-091-201000-
...NORTHEAST COLORADO...

CITY           SKY/WX    TMP DP  RH WIND       PRES   REMARKS
GREELEY ARPT   FAIR      46  37  71 CALM      29.91R
AKRON          FAIR      47  27  45 N8        29.90S
BURLINGTON     FAIR      41  32  70 NW9       29.91R
WRAY           FAIR      43  32  65 CALM      29.89S
YUMA           FAIR      37  30  75 W6        29.90S
STERLING       FAIR      41  32  70 CALM      29.88R
HOLYOKE        NOT AVBL
FORT MORGAN    FAIR      42  30  62 CALM      29.92R
$$

COZ086-089-092>099-201000-
...SOUTHEAST COLORADO...

CITY           SKY/WX    TMP DP  RH WIND       PRES   REMARKS
PUEBLO         FAIR      48  31  51 S5        29.96R
LA JUNTA       FAIR      50  31  48 SE6       29.93R
LAMAR          FAIR      46  31  55 CALM      29.88R
SPRINGFIELD    NOT AVBL
$$




USA.gov is the U.S. government's official web portal to all federal, state and local government web resources and services.